Weather History for Rolla, MO

Change the Weather History Date:

Tuesday, February 5, 2013

  Actual Average Record
Temperature  
Mean Temperature 38 °F 33 °F  
Max Temperature 58 °F 43 °F 66 °F (1963)
Min Temperature 18 °F 23 °F -6 °F (1979)
Degree Days  
Heating Degree Days 27 32  
Month to date heating degree days 161 161  
Since 1 July heating degree days 2889 3129  
Cooling Degree Days 0 0  
Month to date cooling degree days 0 0  
Year to date cooling degree days 0 0  
Moisture  
Dew Point 27 °F    
Average Humidity 63    
Maximum Humidity 92    
Minimum Humidity 33    
Precipitation  
Precipitation 0.00 in 0.06 in 1.97 in (2008)
Month to date precipitation T 0.32  
Year to date precipitation 2.47 2.49  
Sea Level Pressure  
Sea Level Pressure 29.98 in    
Wind  
Wind Speed 7 mph (West)    
Max Wind Speed 22 mph    
Max Gust Speed 28 mph    
Visibility 9 miles    
Events      
T = Trace of Precipitation, MM = Missing Value Source: NWS Daily Summary

Daily Weather History Graph

Daily Weather History Graph

Search for Another Location

Airport:

Trip Planner

Search our weather history database for the weather conditions in past years. The results will help you decide how hot, cold, wet, or windy it might be!

Date:

Astronomy

Feb. 05, 2013 Rise Set
Actual Time 7:07 AM CST 5:34 PM CST
Civil Twilight 6:40 AM CST 6:02 PM CST
Nautical Twilight 6:08 AM CST 6:33 PM CST
Astronomical Twilight 5:38 AM CST 7:04 PM CST
Moon 2:48 AM CST (2/5) 12:54 PM CST (2/5)
Length of Visible Light 11h 22m
Length of Day
10h 27m
Waning Crescent, 26% of the Moon is Illuminated
Feb 5
Waning Crescent
Feb 10
New
Feb 17
First Quarter
Feb 25
Full
Mar 4
Last Quarter

Hourly Weather History & Observations

Time (CST) Temp. Windchill Dew Point Humidity Pressure Visibility Wind Dir Wind Speed Gust Speed Precip Events Conditions
12:53 AM 26.1 °F - 23.0 °F 88% 29.94 in 7.0 mi Calm Calm - N/A   Clear
1:53 AM 23.0 °F - 19.9 °F 88% 29.94 in 8.0 mi Calm Calm - N/A   Clear
2:53 AM 21.9 °F - 19.0 °F 89% 29.93 in 6.0 mi Calm Calm - N/A   Clear
3:53 AM 23.0 °F - 19.0 °F 85% 29.93 in 6.0 mi Calm Calm - N/A   Clear
4:53 AM 23.0 °F - 19.9 °F 88% 29.93 in 5.0 mi Calm Calm - N/A   Clear
5:53 AM 27.0 °F 21.6 °F 24.1 °F 89% 29.92 in 6.0 mi SSE 4.6 mph - N/A   Partly Cloudy
6:53 AM 26.1 °F 19.4 °F 23.0 °F 88% 29.94 in 6.0 mi South 5.8 mph - N/A   Scattered Clouds
7:53 AM 28.9 °F 19.2 °F 26.1 °F 89% 29.95 in 6.0 mi SSW 11.5 mph - N/A   Clear
8:53 AM 33.1 °F 22.2 °F 28.9 °F 85% 29.95 in 9.0 mi SSW 17.3 mph - N/A   Clear
9:53 AM 39.0 °F 31.8 °F 30.0 °F 70% 29.96 in 10.0 mi SW 11.5 mph - N/A   Clear
10:53 AM 45.0 °F 40.6 °F 32.0 °F 60% 29.97 in 10.0 mi WSW 8.1 mph - N/A   Clear
11:53 AM 52.0 °F - 30.9 °F 45% 29.94 in 10.0 mi West 12.7 mph - N/A   Clear
12:53 PM 53.1 °F - 30.9 °F 43% 29.94 in 10.0 mi West 18.4 mph 27.6 mph N/A   Clear
1:53 PM 57.0 °F - 32.0 °F 39% 29.93 in 10.0 mi West 11.5 mph 19.6 mph N/A   Clear
2:53 PM 57.9 °F - 30.0 °F 35% 29.94 in 10.0 mi NW 12.7 mph 20.7 mph N/A   Clear
3:53 PM 57.0 °F - 28.0 °F 33% 29.96 in 10.0 mi WNW 12.7 mph 23.0 mph N/A   Clear
4:53 PM 54.0 °F - 28.9 °F 38% 29.97 in 10.0 mi NW 12.7 mph - N/A   Clear
5:53 PM 50.0 °F - 28.9 °F 44% 29.99 in 10.0 mi NW 8.1 mph - N/A   Clear
6:53 PM 44.1 °F 40.8 °F 30.0 °F 58% 30.02 in 10.0 mi NNW 5.8 mph - N/A   Clear
7:53 PM 39.9 °F - 28.0 °F 63% 30.05 in 10.0 mi Calm Calm - N/A   Clear
8:53 PM 37.0 °F - 27.0 °F 67% 30.08 in 10.0 mi Calm Calm - N/A   Clear
9:53 PM 39.0 °F 35.7 °F 27.0 °F 62% 30.09 in 10.0 mi North 4.6 mph - N/A   Clear
10:53 PM 37.9 °F - 28.0 °F 68% 30.11 in 10.0 mi Calm Calm - N/A   Clear
11:53 PM 35.1 °F 31.0 °F 27.0 °F 72% 30.11 in 10.0 mi NE 4.6 mph - N/A   Clear